Regional Weather Roundup
Issued by NWS

Home | Current Version | Previous Version | Graphics & Text | Print | Product List | Glossary On
Versions: 1 2 3 4 5 6 7 8 9 10 11 12 13 14 15 16 17 18 19 20 21 22 23 24 25 26 27 28 29 30 31 32 33 34 35 36 37 38 39 40 41 42 43 44 45 46 47 48 49 50
385
ASUS43 KFSD 201210
RWRSD

WEATHER ROUNDUP FOR SOUTH DAKOTA
NATIONAL WEATHER SERVICE SIOUX FALLS SD
600 AM CST MON FEB 20 2017

NOTE: "FAIR" INDICATES FEW OR NO CLOUDS BELOW 12,000 FEET WITH NO
SIGNIFICANT WEATHER AND/OR OBSTRUCTIONS TO VISIBILITY.


SDZ001>005-009-010-012>017-201300-
NORTHWEST AND NORTH CENTRAL SOUTH DAKOTA

CITY           SKY/WX    TMP DP  RH WIND       PRES   REMARKS
BUFFALO          N/A     45  37  73 W20       29.67R
FAITH            N/A     41  40  96 NW14      29.68R
MOBRIDGE       CLOUDY    41  34  76 NW16      29.54R
$$

SDZ012>016-024>037-041>051-057-063-072>074-201300-
SOUTHWEST AND SOUTH CENTRAL SOUTH DAKOTA

CITY           SKY/WX    TMP DP  RH WIND       PRES   REMARKS
RAPID CTY ARPT LGT RAIN  45  37  73 NW26G33   29.73R
PIERRE         MOCLDY    44  40  85 NW5       29.56R
CUSTER         CLOUDY    38  29  70 NW7       29.76R
ELLSWORTH AFB  LGT RAIN  45  39  79 NW24G32   29.73R
PHILIP         LGT RAIN  45  41  86 NW13      29.67R
PINE RIDGE     CLOUDY    43  36  76 W3        29.73R
SPEARFISH      MOCLDY    41  37  87 W7        29.78R
WINNER         FAIR      55  45  68 SW13      29.59R
$$

SDZ004>011-016>023-039-040-201300-
NORTHEAST SOUTH DAKOTA

CITY           SKY/WX    TMP DP  RH WIND       PRES   REMARKS
ABERDEEN       CLOUDY    49  45  86 SE12      29.58R
WATERTOWN      CLOUDY    49  48  97 S15       29.64R FOG
BROOKINGS      LGT RAIN  52  50  93 S20G28    29.65F
SISSETON         N/A     52  50  93 S22       29.61R
$$

SDZ017-020-022-023-036>040-048>070-201300-
SOUTHEAST SOUTH DAKOTA

CITY           SKY/WX    TMP DP  RH WIND       PRES   REMARKS
SIOUX FALLS    LGT RAIN  53  52  96 S13       29.71F FOG
HURON          CLOUDY    51  50  96 S17G25    29.61R
CHAMBERLAIN    CLOUDY    55  52  90 SE14      29.58S
MITCHELL       LGT RAIN  53  52  96 S21       29.63S FOG
YANKTON        CLOUDY    52  48  87 S10       29.67F
$$

ABBREVIATIONS USED IN REMARKS
   TC - TEMPERATURE IN CELSIUS
  WCI - WIND CHILL INDEX
   HX - HEAT INDEX
  VSB - VISIBILITY





USA.gov is the U.S. government's official web portal to all federal, state and local government web resources and services.